Weather in Smela

Ukraine / Cherkassi District     49°14′01″N   31°52′59″E
temp.,
°C
wind,
m/s
gust,
m/s
humid.,
%
clouds,
%
prec.,
mm/h
press.,
hPa
HPBL,
m
18 may, tue
tue1800:00+13sw349347 0.0 100455
03:00+12ssw229290 0.0 100319
06:00+13s2291100 0.0 100345
09:00+15sse3688100 1.1 1004365
12:00+20s676779 3.4 10021072
15:00+20sse896592 6.2 10011521
18:00+16s6108184 0.9 1001873
21:00+13s368895 1.3 1001113
19 may, wed
wed1900:00+11sse34937 0.0 100166
03:00+10sse35942 0.0 100186
06:00+10sse24955 0.0 100297
09:00+15sse35735 0.0 1002619
12:00+19sse345625 0.1 10021587
15:00+19s225697 1.6 10021374
18:00+18sw226661 2.5 1003440
21:00+13w478893 3.5 1004134
20 may, thu
thu2000:00+12wnw71092100 0.4 1006469
03:00+11w5992100 0.4 1006595
06:00+11w4994100 0.1 1007568
09:00+12wsw588897 0.3 1008789
12:00+16w8106870 0.1 10091419
15:00+17wnw576358 0.3 10101358
18:00+17nw3365100 0.0 10111042
21:00+13ne3478100 0.0 101258
21 may, fri
fri2100:00+12se2396100 1.8 1013133
03:00+12ene4698100 4.4 1013288
06:00+12ene5994100 0.5 1013402
09:00+12ne5992100 2.2 1014441
12:00+11nne4888100 1.0 1015484
15:00+13nne5987100 1.2 1015645
18:00+13nne61084100 0.0 1015505
21:00+13nne61184100 0.1 1016473
22 may, sat
sat2200:00+12nne7128244 0.0 1015460
03:00+11n51086100 0.0 1015278
06:00+11nnw488897 0.0 1014249
09:00+14n688180 0.0 1014483
12:00+17n677885 0.0 1014751
15:00+19nne5674100 0.0 1014941
18:00+18n4680100 0.0 1014577
21:00+16n4888100 0.0 1014305